This demonstration page uses our WeatherBlox Daily Observations layout. Learn more.

Left ArrowRight Arrow

Hourly Observations for August 10, 2022

Temp ( °F °C ) Dew Point ( °F °C ) Humidity (%) Winds ( mph kmh ) Pressure ( in mb ) Visibility ( mi km ) Precip ( " mm )
12:56 am 00:56 Clear 65 18.3 61 16.1 87 87 S 9 15 30.11 1020 10 16 0.00 0.00
1:56 am 01:56 Clear 65 18.3 61 16.1 87 87 S 7 11 30.11 1020 10 16 0.00 0.00
2:56 am 02:56 Clear 66 18.9 61 16.1 84 84 S 8 13 30.11 1020 10 16 0.00 0.00
3:56 am 03:56 Clear 67 19.4 60 15.6 79 79 SSW 8 13 30.11 1020 10 16 0.00 0.00
4:56 am 04:56 Partly Cloudy 65 18.3 59 15 81 81 Calm 30.13 1020 10 16 0.00 0.00
5:56 am 05:56 Clear 63 17.2 59 15 87 87 S 3 6 30.14 1021 10 16 0.00 0.00
6:56 am 06:56 Sunny 62 16.7 59 15 90 90 S 5 7 30.17 1022 10 16 0.00 0.00
7:56 am 07:56 Sunny 66 18.9 61 16.1 84 84 S 5 7 30.18 1022 10 16 0.00 0.00
8:56 am 08:56 Mostly Cloudy 71 21.7 63 17.2 76 76 S 7 11 30.18 1022 10 16 0.00 0.00
9:56 am 09:56 Sunny 78 25.6 62 16.7 58 58 S 7 11 30.18 1022 10 16 0.00 0.00
10:56 am 10:56 Sunny 82 27.8 63 17.2 53 53 SSW 7 11 30.18 1022 10 16 0.00 0.00
11:30 am 11:30 Mostly Sunny 84 29 64 18 52 52 S 9 15 30.09 1019 10 16 0.00 0.00
11:56 am 11:56 Sunny 85 29.4 65 18.3 51 51 SSW 8 13 30.17 1022 10 16 0.00 0.00
12:56 pm 12:56 Sunny 88 31.1 67 19.4 50 50 S 8 13 30.16 1022 10 16 0.00 0.00
1:23 pm 13:23 Mostly Sunny 90 32 66 19 46 46 S 10 17 30.06 1018 10 16 0.00 0.00
1:56 pm 13:56 Sunny 90 32.2 66 18.9 45 45 SSW 10 17 30.15 1021 10 16 0.00 0.00
2:56 pm 14:56 Sunny 91 32.8 63 17.2 39 39 SSW 10 17 30.14 1021 10 16 0.00 0.00
3:56 pm 15:56 Sunny 93 33.9 65 18.3 40 40 SSW 13 20 30.12 1020 10 16 0.00 0.00
4:56 pm 16:56 Sunny 92 33.3 66 18.9 43 43 S 12 19 30.12 1020 10 16 0.00 0.00
5:56 pm 17:56 Sunny 91 32.8 64 17.8 41 41 S 13 20 30.11 1020 10 16 0.00 0.00
6:56 pm 18:56 Sunny 89 31.7 65 18.3 45 45 S 14 22 30.09 1019 10 16 0.00 0.00
7:56 pm 19:56 Sunny 85 29.4 68 20 57 57 S 9 15 30.09 1019 10 16 0.00 0.00
8:56 pm 20:56 Clear 78 25.6 69 20.6 74 74 SSE 8 13 30.11 1020 10 16 0.00 0.00
9:56 pm 21:56 Clear 75 23.9 67 19.4 76 76 S 9 15 30.11 1020 10 16 0.00 0.00
10:56 pm 22:56 Clear 73 22.8 65 18.3 76 76 SSE 9 15 30.13 1020 10 16 0.00 0.00
11:56 pm 23:56 Clear 73 22.8 65 18.3 76 76 S 9 15 30.13 1020 10 16 0.00 0.00

Powered by AerisWeather